Time,TemperatureF,DewpointF,PressureIn,WindDirection,WindDirectionDegrees,WindSpeedMPH,WindSpeedGustMPH,Humidity,HourlyPrecipIn,Conditions,Clouds,dailyrainin,SoftwareType,DateUTC
2013-02-10 00:04:00,36.9,27.7,30.24,NNE,22,0.0,0.0,69,0.00,,,0.00,WUHU21623XXSP,2013-02-10 05:04:00,
2013-02-10 00:15:00,36.9,28.4,30.23,East,90,0.0,0.0,71,0.00,,,0.00,WUHU21623XXSP,2013-02-10 05:15:00,
2013-02-10 00:20:00,37.0,28.5,30.24,ESE,112,0.0,0.0,71,0.00,,,0.00,WUHU21623XXSP,2013-02-10 05:20:00,
2013-02-10 00:25:00,37.2,28.7,30.24,ESE,112,0.0,0.0,71,0.00,,,0.00,WUHU21623XXSP,2013-02-10 05:25:00,
2013-02-10 00:30:00,37.2,28.7,30.24,ESE,112,0.0,0.0,71,0.00,,,0.00,WUHU21623XXSP,2013-02-10 05:30:00,
2013-02-10 00:35:00,37.4,29.2,30.24,ESE,112,0.0,0.0,72,0.00,,,0.00,WUHU21623XXSP,2013-02-10 05:35:00,
2013-02-10 00:40:00,37.6,29.4,30.24,East,90,0.0,0.0,72,0.00,,,0.00,WUHU21623XXSP,2013-02-10 05:40:00,
2013-02-10 00:45:00,37.6,29.7,30.25,North,0,0.0,0.0,73,0.00,,,0.00,WUHU21623XXSP,2013-02-10 05:45:00,
2013-02-10 00:50:00,37.8,29.9,30.24,ESE,112,0.0,0.0,73,0.00,,,0.00,WUHU21623XXSP,2013-02-10 05:50:00,
2013-02-10 00:55:00,37.9,29.7,30.25,South,180,0.0,0.0,72,0.00,,,0.00,WUHU21623XXSP,2013-02-10 05:55:00,
2013-02-10 01:00:00,37.9,30.0,30.24,ESE,112,0.0,0.0,73,0.00,,,0.00,WUHU21623XXSP,2013-02-10 06:00:00,
2013-02-10 01:05:00,37.9,30.0,30.24,ESE,112,0.0,0.0,73,0.00,,,0.00,WUHU21623XXSP,2013-02-10 06:05:00,
2013-02-10 01:10:00,37.9,29.7,30.25,NNE,22,0.0,0.0,72,0.00,,,0.00,WUHU21623XXSP,2013-02-10 06:10:00,
2013-02-10 01:15:00,37.9,29.7,30.24,NNE,22,0.0,0.0,72,0.00,,,0.00,WUHU21623XXSP,2013-02-10 06:15:00,
2013-02-10 01:20:00,37.9,29.7,30.23,NNE,22,0.0,0.0,72,0.00,,,0.00,WUHU21623XXSP,2013-02-10 06:20:00,
2013-02-10 01:25:00,37.9,29.7,30.23,East,90,0.0,0.0,72,0.00,,,0.00,WUHU21623XXSP,2013-02-10 06:25:00,
2013-02-10 01:30:00,38.1,29.9,30.23,East,90,0.0,0.0,72,0.00,,,0.00,WUHU21623XXSP,2013-02-10 06:30:00,
2013-02-10 01:35:00,38.1,29.6,30.24,East,90,0.0,0.0,71,0.00,,,0.00,WUHU21623XXSP,2013-02-10 06:35:00,
2013-02-10 01:40:00,38.1,29.6,30.24,ESE,112,0.0,0.0,71,0.00,,,0.00,WUHU21623XXSP,2013-02-10 06:40:00,
2013-02-10 01:45:00,38.1,29.6,30.24,ESE,112,0.0,0.0,71,0.00,,,0.00,WUHU21623XXSP,2013-02-10 06:45:00,
2013-02-10 01:50:00,38.1,30.2,30.24,ESE,112,0.0,0.0,73,0.00,,,0.00,WUHU21623XXSP,2013-02-10 06:50:00,
2013-02-10 01:55:00,38.1,30.2,30.24,ESE,112,0.0,0.0,73,0.00,,,0.00,WUHU21623XXSP,2013-02-10 06:55:00,
2013-02-10 02:00:00,38.1,29.6,30.24,ESE,112,0.0,0.0,71,0.00,,,0.00,WUHU21623XXSP,2013-02-10 07:00:00,
2013-02-10 02:05:00,38.1,30.2,30.24,East,90,0.0,0.0,73,0.00,,,0.00,WUHU21623XXSP,2013-02-10 07:05:00,
2013-02-10 02:10:00,37.9,30.0,30.24,East,90,0.0,0.0,73,0.00,,,0.00,WUHU21623XXSP,2013-02-10 07:10:00,
2013-02-10 02:15:00,37.8,29.9,30.24,East,90,0.0,0.0,73,0.00,,,0.00,WUHU21623XXSP,2013-02-10 07:15:00,
2013-02-10 02:20:00,37.6,30.0,30.24,East,90,0.0,0.0,74,0.00,,,0.00,WUHU21623XXSP,2013-02-10 07:20:00,
2013-02-10 02:25:00,37.4,30.2,30.24,East,90,1.4,1.7,75,0.00,,,0.00,WUHU21623XXSP,2013-02-10 07:25:00,
2013-02-10 02:30:00,37.4,29.9,30.24,WNW,292,0.0,1.7,74,0.00,,,0.00,WUHU21623XXSP,2013-02-10 07:30:00,
2013-02-10 02:35:00,37.2,30.0,30.24,East,90,2.1,2.7,75,0.00,,,0.00,WUHU21623XXSP,2013-02-10 07:35:00,
2013-02-10 02:40:00,37.4,30.2,30.23,ESE,112,0.0,2.7,75,0.00,,,0.00,WUHU21623XXSP,2013-02-10 07:40:00,
2013-02-10 02:45:00,37.4,30.2,30.23,ESE,112,0.0,2.4,75,0.00,,,0.00,WUHU21623XXSP,2013-02-10 07:45:00,
2013-02-10 02:50:00,37.4,30.2,30.24,ESE,112,0.0,0.0,75,0.00,,,0.00,WUHU21623XXSP,2013-02-10 07:50:00,
2013-02-10 02:55:00,37.4,30.2,30.25,ESE,112,0.0,0.0,75,0.00,,,0.00,WUHU21623XXSP,2013-02-10 07:55:00,
2013-02-10 03:00:00,37.2,30.3,30.25,West,270,0.0,0.0,76,0.00,,,0.00,WUHU21623XXSP,2013-02-10 08:00:00,
2013-02-10 03:05:00,37.2,30.3,30.25,ESE,112,0.0,0.0,76,0.00,,,0.00,WUHU21623XXSP,2013-02-10 08:05:00,
2013-02-10 03:11:00,37.4,30.2,30.24,South,180,0.0,0.0,75,0.00,,,0.00,WUHU21623XXSP,2013-02-10 08:11:00,
2013-02-10 03:16:00,37.4,30.2,30.23,East,90,1.2,1.3,75,0.00,,,0.00,WUHU21623XXSP,2013-02-10 08:16:00,
2013-02-10 03:21:00,37.6,30.7,30.24,East,90,0.0,1.3,76,0.00,,,0.00,WUHU21623XXSP,2013-02-10 08:21:00,
2013-02-10 03:26:00,37.8,30.9,30.24,West,270,0.0,0.0,76,0.00,,,0.00,WUHU21623XXSP,2013-02-10 08:26:00,
2013-02-10 03:31:00,37.6,30.7,30.24,East,90,0.0,0.0,77,0.00,,,0.00,WUHU21623XXSP,2013-02-10 08:31:00,
2013-02-10 03:36:00,37.6,31.0,30.23,NNE,22,0.0,0.0,77,0.00,,,0.00,WUHU21623XXSP,2013-02-10 08:36:00,
2013-02-10 03:41:00,37.6,30.7,30.23,ESE,112,0.0,0.0,76,0.00,,,0.00,WUHU21623XXSP,2013-02-10 08:41:00,
2013-02-10 03:46:00,37.8,30.9,30.23,ESE,112,0.0,0.0,76,0.00,,,0.00,WUHU21623XXSP,2013-02-10 08:46:00,
2013-02-10 03:51:00,37.9,31.4,30.23,ESE,112,0.0,0.0,77,0.00,,,0.00,WUHU21623XXSP,2013-02-10 08:51:00,
2013-02-10 03:56:00,37.9,31.0,30.23,NNE,22,0.0,0.0,76,0.00,,,0.00,WUHU21623XXSP,2013-02-10 08:56:00,
2013-02-10 04:01:00,38.1,30.9,30.23,ESE,112,0.0,0.0,75,0.00,,,0.00,WUHU21623XXSP,2013-02-10 09:01:00,
2013-02-10 04:06:00,38.3,31.0,30.23,ESE,112,0.0,0.0,75,0.00,,,0.00,WUHU21623XXSP,2013-02-10 09:06:00,
2013-02-10 04:11:00,38.1,30.9,30.23,WNW,292,0.0,0.0,75,0.00,,,0.00,WUHU21623XXSP,2013-02-10 09:11:00,
2013-02-10 04:16:00,37.9,31.0,30.23,NNE,22,0.0,0.0,76,0.00,,,0.00,WUHU21623XXSP,2013-02-10 09:16:00,
2013-02-10 04:21:00,37.8,30.9,30.24,South,180,0.0,0.0,76,0.00,,,0.00,WUHU21623XXSP,2013-02-10 09:21:00,
2013-02-10 04:26:00,37.6,30.7,30.24,ESE,112,0.0,0.0,76,0.00,,,0.00,WUHU21623XXSP,2013-02-10 09:26:00,
2013-02-10 04:31:00,37.2,30.3,30.23,ESE,112,0.0,0.0,76,0.00,,,0.00,WUHU21623XXSP,2013-02-10 09:31:00,
2013-02-10 04:36:00,37.6,30.7,30.23,ESE,112,0.0,0.0,76,0.00,,,0.00,WUHU21623XXSP,2013-02-10 09:36:00,
2013-02-10 04:41:00,37.6,30.7,30.23,ESE,112,0.0,0.0,76,0.00,,,0.00,WUHU21623XXSP,2013-02-10 09:41:00,
2013-02-10 04:46:00,37.4,30.5,30.23,East,90,0.0,0.0,76,0.00,,,0.00,WUHU21623XXSP,2013-02-10 09:46:00,
2013-02-10 04:51:00,37.4,30.5,30.23,NNE,22,0.0,0.0,76,0.00,,,0.00,WUHU21623XXSP,2013-02-10 09:51:00,
2013-02-10 04:56:00,37.2,30.7,30.23,East,90,0.0,0.0,77,0.00,,,0.00,WUHU21623XXSP,2013-02-10 09:56:00,
2013-02-10 05:01:00,37.4,30.8,30.23,East,90,0.0,0.0,77,0.00,,,0.00,WUHU21623XXSP,2013-02-10 10:01:00,
2013-02-10 05:06:00,37.6,30.7,30.23,ESE,112,0.0,0.0,76,0.00,,,0.00,WUHU21623XXSP,2013-02-10 10:06:00,
2013-02-10 05:11:00,37.6,30.7,30.23,South,180,0.0,0.0,76,0.00,,,0.00,WUHU21623XXSP,2013-02-10 10:11:00,
2013-02-10 05:16:00,37.6,30.7,30.23,South,180,0.0,0.0,76,0.00,,,0.00,WUHU21623XXSP,2013-02-10 10:16:00,
2013-02-10 05:21:00,37.8,30.5,30.23,SSW,202,0.0,0.0,75,0.00,,,0.00,WUHU21623XXSP,2013-02-10 10:21:00,
2013-02-10 05:26:00,37.9,30.7,30.23,South,180,0.0,0.0,75,0.00,,,0.00,WUHU21623XXSP,2013-02-10 10:26:00,
2013-02-10 05:31:00,37.8,30.5,30.23,ESE,112,0.0,0.0,75,0.00,,,0.00,WUHU21623XXSP,2013-02-10 10:31:00,
2013-02-10 05:36:00,37.8,30.5,30.23,WNW,292,0.0,0.0,75,0.00,,,0.00,WUHU21623XXSP,2013-02-10 10:36:00,
2013-02-10 05:41:00,37.6,30.4,30.23,East,90,0.0,0.0,75,0.00,,,0.00,WUHU21623XXSP,2013-02-10 10:41:00,
2013-02-10 05:46:00,37.6,30.4,30.23,East,90,0.0,0.0,75,0.00,,,0.00,WUHU21623XXSP,2013-02-10 10:46:00,
2013-02-10 05:51:00,37.6,30.4,30.24,East,90,0.0,0.0,75,0.00,,,0.00,WUHU21623XXSP,2013-02-10 10:51:00,
2013-02-10 05:56:00,37.4,30.5,30.24,East,90,0.0,0.0,76,0.00,,,0.00,WUHU21623XXSP,2013-02-10 10:56:00,
2013-02-10 06:01:00,37.4,30.8,30.24,ESE,112,0.0,1.7,77,0.00,,,0.00,WUHU21623XXSP,2013-02-10 11:01:00,
2013-02-10 06:06:00,37.2,30.7,30.23,ESE,112,0.0,1.7,77,0.00,,,0.00,WUHU21623XXSP,2013-02-10 11:06:00,
2013-02-10 06:11:00,37.6,30.4,30.24,West,270,0.0,1.7,75,0.00,,,0.00,WUHU21623XXSP,2013-02-10 11:11:00,
2013-02-10 06:16:00,37.6,30.7,30.24,West,270,0.0,1.7,76,0.00,,,0.00,WUHU21623XXSP,2013-02-10 11:16:00,
2013-02-10 06:21:00,37.6,31.0,30.24,East,90,0.0,0.0,77,0.00,,,0.00,WUHU21623XXSP,2013-02-10 11:21:00,
2013-02-10 06:27:00,37.2,30.7,30.24,NNE,22,0.0,0.0,77,0.00,,,0.00,WUHU21623XXSP,2013-02-10 11:27:00,
2013-02-10 06:32:00,37.2,30.7,30.24,ESE,112,0.0,0.0,77,0.00,,,0.00,WUHU21623XXSP,2013-02-10 11:32:00,
2013-02-10 06:37:00,37.4,30.5,30.24,East,90,0.0,0.0,76,0.00,,,0.00,WUHU21623XXSP,2013-02-10 11:37:00,
2013-02-10 06:42:00,37.4,30.8,30.24,South,180,0.0,0.0,77,0.00,,,0.00,WUHU21623XXSP,2013-02-10 11:42:00,
2013-02-10 06:47:00,37.4,30.8,30.24,South,180,0.0,0.0,77,0.00,,,0.00,WUHU21623XXSP,2013-02-10 11:47:00,
2013-02-10 06:52:00,37.6,31.0,30.24,South,180,0.0,0.0,77,0.00,,,0.00,WUHU21623XXSP,2013-02-10 11:52:00,
2013-02-10 06:57:00,37.9,30.4,30.24,South,180,0.0,0.0,74,0.00,,,0.00,WUHU21623XXSP,2013-02-10 11:57:00,
2013-02-10 07:02:00,38.3,31.0,30.23,East,90,2.1,2.4,75,0.00,,,0.00,WUHU21623XXSP,2013-02-10 12:02:00,
2013-02-10 07:07:00,38.5,31.2,30.23,ESE,112,0.0,2.4,75,0.00,,,0.00,WUHU21623XXSP,2013-02-10 12:07:00,
2013-02-10 07:12:00,38.7,30.4,30.23,ESE,112,0.0,2.4,72,0.00,,,0.00,WUHU21623XXSP,2013-02-10 12:12:00,
2013-02-10 07:17:00,38.8,30.2,30.23,ESE,112,1.7,1.9,71,0.00,,,0.00,WUHU21623XXSP,2013-02-10 12:17:00,
2013-02-10 07:22:00,39.0,30.0,30.23,ESE,112,1.7,1.9,70,0.00,,,0.00,WUHU21623XXSP,2013-02-10 12:22:00,
2013-02-10 07:27:00,38.8,30.5,30.23,East,90,0.0,1.9,72,0.00,,,0.00,WUHU21623XXSP,2013-02-10 12:27:00,
2013-02-10 07:32:00,38.8,30.5,30.24,North,0,0.0,1.9,72,0.00,,,0.00,WUHU21623XXSP,2013-02-10 12:32:00,
2013-02-10 07:37:00,38.5,30.5,30.24,North,0,0.0,0.0,73,0.00,,,0.00,WUHU21623XXSP,2013-02-10 12:37:00,
2013-02-10 07:42:00,38.1,30.9,30.24,ESE,112,0.0,2.7,75,0.00,,,0.00,WUHU21623XXSP,2013-02-10 12:42:00,
2013-02-10 07:47:00,38.1,30.9,30.24,East,90,0.0,2.7,75,0.00,,,0.00,WUHU21623XXSP,2013-02-10 12:47:00,
2013-02-10 07:52:00,38.1,30.9,30.24,East,90,0.0,0.0,75,0.00,,,0.00,WUHU21623XXSP,2013-02-10 12:52:00,
2013-02-10 07:57:00,38.5,31.2,30.24,ESE,112,0.0,0.0,75,0.00,,,0.00,WUHU21623XXSP,2013-02-10 12:57:00,
2013-02-10 08:02:00,38.5,31.2,30.23,ESE,112,0.0,0.0,75,0.00,,,0.00,WUHU21623XXSP,2013-02-10 13:02:00,
2013-02-10 08:07:00,38.5,31.2,30.23,South,180,0.0,0.0,75,0.00,,,0.00,WUHU21623XXSP,2013-02-10 13:07:00,
2013-02-10 08:12:00,38.5,31.6,30.23,South,180,0.0,0.0,76,0.00,,,0.00,WUHU21623XXSP,2013-02-10 13:12:00,
2013-02-10 08:17:00,38.8,32.2,30.23,South,180,0.0,0.0,77,0.00,,,0.00,WUHU21623XXSP,2013-02-10 13:17:00,
2013-02-10 08:22:00,38.8,32.2,30.24,South,180,0.0,0.0,77,0.00,,,0.00,WUHU21623XXSP,2013-02-10 13:22:00,
2013-02-10 08:27:00,38.8,31.9,30.24,South,180,0.0,0.0,76,0.00,,,0.00,WUHU21623XXSP,2013-02-10 13:27:00,
2013-02-10 08:32:00,39.0,32.1,30.24,SSW,202,0.0,0.0,76,0.00,,,0.00,WUHU21623XXSP,2013-02-10 13:32:00,
2013-02-10 08:37:00,39.6,32.6,30.25,SSW,202,0.0,0.0,76,0.00,,,0.00,WUHU21623XXSP,2013-02-10 13:37:00,
2013-02-10 08:42:00,39.7,32.4,30.25,South,180,0.0,0.0,75,0.00,,,0.00,WUHU21623XXSP,2013-02-10 13:42:00,
2013-02-10 08:47:00,39.7,32.4,30.25,South,180,0.0,0.0,75,0.00,,,0.00,WUHU21623XXSP,2013-02-10 13:47:00,
2013-02-10 08:52:00,40.1,32.8,30.25,ESE,112,0.0,0.0,75,0.00,,,0.00,WUHU21623XXSP,2013-02-10 13:52:00,
2013-02-10 08:57:00,40.5,33.1,30.24,NNE,22,0.0,0.0,75,0.00,,,0.00,WUHU21623XXSP,2013-02-10 13:57:00,
2013-02-10 09:02:00,40.6,33.3,30.24,East,90,0.0,0.0,75,0.00,,,0.00,WUHU21623XXSP,2013-02-10 14:02:00,
2013-02-10 09:07:00,41.2,33.2,30.24,ESE,112,0.0,0.0,73,0.00,,,0.00,WUHU21623XXSP,2013-02-10 14:07:00,
2013-02-10 09:12:00,41.5,33.5,30.24,South,180,0.0,0.0,73,0.00,,,0.00,WUHU21623XXSP,2013-02-10 14:12:00,
2013-02-10 09:17:00,41.9,33.9,30.24,ESE,112,0.0,0.0,73,0.00,,,0.00,WUHU21623XXSP,2013-02-10 14:17:00,
2013-02-10 09:22:00,42.6,33.9,30.24,ESE,112,0.0,0.0,71,0.00,,,0.00,WUHU21623XXSP,2013-02-10 14:22:00,
2013-02-10 09:28:00,43.0,34.0,30.25,ESE,112,0.0,0.0,70,0.00,,,0.00,WUHU21623XXSP,2013-02-10 14:28:00,
2013-02-10 09:33:00,43.3,33.9,30.24,NNE,22,0.0,0.0,69,0.00,,,0.00,WUHU21623XXSP,2013-02-10 14:33:00,
2013-02-10 09:38:00,43.9,34.4,30.24,WNW,292,0.0,0.0,69,0.00,,,0.00,WUHU21623XXSP,2013-02-10 14:38:00,
2013-02-10 09:43:00,44.4,34.5,30.23,West,270,0.0,0.0,68,0.00,,,0.00,WUHU21623XXSP,2013-02-10 14:43:00,
2013-02-10 09:48:00,44.8,34.8,30.24,North,0,0.0,0.0,68,0.00,,,0.00,WUHU21623XXSP,2013-02-10 14:48:00,
2013-02-10 09:53:00,45.5,34.8,30.24,North,0,0.0,0.0,66,0.00,,,0.00,WUHU21623XXSP,2013-02-10 14:53:00,
2013-02-10 09:58:00,46.0,35.3,30.24,WNW,292,0.0,0.0,66,0.00,,,0.00,WUHU21623XXSP,2013-02-10 14:58:00,
2013-02-10 10:03:00,46.0,35.3,30.24,WNW,292,0.0,0.0,66,0.00,,,0.00,WUHU21623XXSP,2013-02-10 15:03:00,
2013-02-10 10:08:00,46.0,35.3,30.24,SSW,202,2.1,2.4,66,0.00,,,0.00,WUHU21623XXSP,2013-02-10 15:08:00,
2013-02-10 10:13:00,46.0,35.3,30.24,WNW,292,0.0,2.4,66,0.00,,,0.00,WUHU21623XXSP,2013-02-10 15:13:00,
2013-02-10 10:18:00,46.6,35.8,30.24,WNW,292,0.0,2.4,66,0.00,,,0.00,WUHU21623XXSP,2013-02-10 15:18:00,
2013-02-10 10:23:00,46.8,36.0,30.24,WNW,292,0.0,0.0,66,0.00,,,0.00,WUHU21623XXSP,2013-02-10 15:23:00,
2013-02-10 10:28:00,47.5,36.3,30.23,SSW,202,0.0,0.0,65,0.00,,,0.00,WUHU21623XXSP,2013-02-10 15:28:00,
2013-02-10 10:33:00,48.0,36.0,30.22,West,270,0.0,0.0,63,0.00,,,0.00,WUHU21623XXSP,2013-02-10 15:33:00,
2013-02-10 10:38:00,48.4,36.4,30.22,NNE,22,0.0,0.0,63,0.00,,,0.00,WUHU21623XXSP,2013-02-10 15:38:00,
2013-02-10 10:43:00,49.1,37.0,30.21,North,0,0.0,0.0,63,0.00,,,0.00,WUHU21623XXSP,2013-02-10 15:43:00,
2013-02-10 10:48:00,49.8,37.3,30.21,WNW,292,0.0,0.0,62,0.00,,,0.00,WUHU21623XXSP,2013-02-10 15:48:00,
2013-02-10 10:53:00,51.1,37.7,30.20,West,270,2.3,2.7,60,0.00,,,0.00,WUHU21623XXSP,2013-02-10 15:53:00,
2013-02-10 10:58:00,50.7,36.9,30.19,West,270,0.0,2.7,59,0.00,,,0.00,WUHU21623XXSP,2013-02-10 15:58:00,
2013-02-10 11:03:00,51.4,36.2,30.19,WNW,292,0.0,2.7,56,0.00,,,0.00,WUHU21623XXSP,2013-02-10 16:03:00,
2013-02-10 11:08:00,53.4,38.0,30.19,West,270,6.4,7.4,56,0.00,,,0.00,WUHU21623XXSP,2013-02-10 16:08:00,
2013-02-10 11:13:00,55.2,37.8,30.20,West,270,4.9,11.1,52,0.00,,,0.00,WUHU21623XXSP,2013-02-10 16:13:00,
2013-02-10 11:18:00,57.0,35.2,30.20,SSW,202,8.2,18.5,44,0.00,,,0.00,WUHU21623XXSP,2013-02-10 16:18:00,
2013-02-10 11:23:00,57.0,35.2,30.20,South,180,2.6,18.5,44,0.00,,,0.00,WUHU21623XXSP,2013-02-10 16:23:00,
2013-02-10 11:28:00,57.0,34.6,30.20,South,180,11.1,22.8,43,0.00,,,0.00,WUHU21623XXSP,2013-02-10 16:28:00,
2013-02-10 11:33:00,57.4,33.2,30.19,SSW,202,6.4,22.8,40,0.00,,,0.00,WUHU21623XXSP,2013-02-10 16:33:00,
2013-02-10 11:38:00,57.6,32.7,30.18,ESE,112,7.5,12.8,39,0.00,,,0.00,WUHU21623XXSP,2013-02-10 16:38:00,
2013-02-10 11:43:00,57.9,33.7,30.18,NNE,22,3.8,8.7,40,0.00,,,0.00,WUHU21623XXSP,2013-02-10 16:43:00,
2013-02-10 11:49:00,58.8,33.8,30.18,South,180,7.0,8.7,39,0.00,,,0.00,WUHU21623XXSP,2013-02-10 16:49:00,
2013-02-10 11:54:00,58.8,34.5,30.17,South,180,12.5,14.4,40,0.00,,,0.00,WUHU21623XXSP,2013-02-10 16:54:00,
2013-02-10 11:59:00,58.8,33.1,30.17,SSW,202,4.9,14.4,38,0.00,,,0.00,WUHU21623XXSP,2013-02-10 16:59:00,
2013-02-10 12:04:00,58.8,32.4,30.16,ESE,112,7.8,14.4,37,0.00,,,0.00,WUHU21623XXSP,2013-02-10 17:04:00,
2013-02-10 12:09:00,58.8,33.1,30.17,South,180,3.8,9.0,38,0.00,,,0.00,WUHU21623XXSP,2013-02-10 17:09:00,
2013-02-10 12:14:00,59.0,33.3,30.17,SSW,202,6.1,9.0,38,0.00,,,0.00,WUHU21623XXSP,2013-02-10 17:14:00,
2013-02-10 12:19:00,59.2,32.7,30.16,ESE,112,2.3,12.2,37,0.00,,,0.00,WUHU21623XXSP,2013-02-10 17:19:00,
2013-02-10 12:24:00,59.2,33.4,30.15,SSW,202,7.0,12.2,38,0.00,,,0.00,WUHU21623XXSP,2013-02-10 17:24:00,
2013-02-10 12:29:00,59.7,33.2,30.15,South,180,4.7,10.4,37,0.00,,,0.00,WUHU21623XXSP,2013-02-10 17:29:00,
2013-02-10 12:34:00,60.6,34.0,30.14,SSW,202,4.0,10.4,37,0.00,,,0.00,WUHU21623XXSP,2013-02-10 17:34:00,
2013-02-10 12:39:00,61.9,35.1,30.14,ESE,112,2.1,5.4,37,0.00,,,0.00,WUHU21623XXSP,2013-02-10 17:39:00,
2013-02-10 12:44:00,61.5,34.1,30.13,South,180,5.2,12.2,36,0.00,,,0.00,WUHU21623XXSP,2013-02-10 17:44:00,
2013-02-10 12:49:00,61.2,34.5,30.12,South,180,4.0,12.2,37,0.00,,,0.00,WUHU21623XXSP,2013-02-10 17:49:00,
2013-02-10 12:54:00,60.6,34.0,30.12,SSW,202,1.7,12.2,37,0.00,,,0.00,WUHU21623XXSP,2013-02-10 17:54:00,
2013-02-10 12:59:00,60.6,34.0,30.12,South,180,9.9,12.2,37,0.00,,,0.00,WUHU21623XXSP,2013-02-10 17:59:00,
2013-02-10 13:04:00,60.6,34.0,30.12,South,180,7.8,11.4,37,0.00,,,0.00,WUHU21623XXSP,2013-02-10 18:04:00,
2013-02-10 13:10:00,60.6,34.0,30.12,SSW,202,9.4,16.0,37,0.00,,,0.00,WUHU21623XXSP,2013-02-10 18:10:00,
2013-02-10 13:15:00,60.6,34.0,30.11,South,180,7.3,16.0,37,0.00,,,0.00,WUHU21623XXSP,2013-02-10 18:15:00,
2013-02-10 13:20:00,60.6,34.0,30.12,SSW,202,5.6,18.8,37,0.00,,,0.00,WUHU21623XXSP,2013-02-10 18:20:00,
2013-02-10 13:25:00,60.6,34.0,30.11,North,0,1.2,18.8,37,0.00,,,0.00,WUHU21623XXSP,2013-02-10 18:25:00,
2013-02-10 13:31:00,60.6,34.0,30.11,SSW,202,1.7,18.8,37,0.00,,,0.00,WUHU21623XXSP,2013-02-10 18:31:00,
2013-02-10 13:36:00,61.0,33.6,30.10,SSW,202,6.1,7.0,36,0.00,,,0.00,WUHU21623XXSP,2013-02-10 18:36:00,
2013-02-10 13:42:00,61.7,34.3,30.10,East,90,10.1,11.7,36,0.00,,,0.00,WUHU21623XXSP,2013-02-10 18:42:00,
2013-02-10 13:47:00,61.9,35.1,30.10,WNW,292,0.0,11.7,37,0.00,,,0.00,WUHU21623XXSP,2013-02-10 18:47:00,
2013-02-10 13:53:00,61.5,34.8,30.09,WNW,292,2.9,8.7,37,0.00,,,0.00,WUHU21623XXSP,2013-02-10 18:53:00,
2013-02-10 13:59:00,61.0,34.3,30.09,South,180,4.0,8.7,37,0.00,,,0.00,WUHU21623XXSP,2013-02-10 18:59:00,
2013-02-10 14:04:00,60.8,34.9,30.09,SSW,202,5.8,9.5,38,0.00,,,0.00,WUHU21623XXSP,2013-02-10 19:04:00,
2013-02-10 14:10:00,60.6,35.4,30.08,ESE,112,5.8,9.5,39,0.00,,,0.00,WUHU21623XXSP,2013-02-10 19:10:00,
2013-02-10 14:15:00,60.6,34.7,30.08,ESE,112,2.1,6.8,38,0.00,,,0.00,WUHU21623XXSP,2013-02-10 19:15:00,
2013-02-10 14:21:00,60.1,35.0,30.08,NNE,22,8.7,10.0,39,0.00,,,0.00,WUHU21623XXSP,2013-02-10 19:21:00,
2013-02-10 14:26:00,59.9,34.8,30.08,East,90,3.8,10.0,39,0.00,,,0.00,WUHU21623XXSP,2013-02-10 19:26:00,
2013-02-10 14:32:00,59.7,35.3,30.07,ESE,112,3.8,11.4,40,0.00,,,0.00,WUHU21623XXSP,2013-02-10 19:32:00,
2013-02-10 14:37:00,59.2,36.0,30.07,South,180,1.7,11.4,42,0.00,,,0.00,WUHU21623XXSP,2013-02-10 19:37:00,
2013-02-10 14:43:00,58.6,36.7,30.07,West,270,4.0,7.6,44,0.00,,,0.00,WUHU21623XXSP,2013-02-10 19:43:00,
2013-02-10 14:48:00,57.6,37.4,30.07,SSW,202,5.6,7.6,47,0.00,,,0.00,WUHU21623XXSP,2013-02-10 19:48:00,
2013-02-10 14:54:00,56.8,38.5,30.07,SSW,202,3.3,6.5,50,0.00,,,0.00,WUHU21623XXSP,2013-02-10 19:54:00,
2013-02-10 14:59:00,55.8,38.8,30.07,SSW,202,0.0,6.5,53,0.00,,,0.00,WUHU21623XXSP,2013-02-10 19:59:00,
2013-02-10 15:04:00,55.6,38.6,30.07,SSW,202,3.3,3.8,53,0.00,,,0.00,WUHU21623XXSP,2013-02-10 20:04:00,
2013-02-10 15:10:00,55.2,40.2,30.07,West,270,1.7,3.8,57,0.00,,,0.00,WUHU21623XXSP,2013-02-10 20:10:00,
2013-02-10 15:15:00,54.7,40.6,30.06,West,270,2.6,3.8,59,0.00,,,0.00,WUHU21623XXSP,2013-02-10 20:15:00,
2013-02-10 15:21:00,54.3,40.3,30.05,ESE,112,0.0,3.0,59,0.00,,,0.00,WUHU21623XXSP,2013-02-10 20:21:00,
2013-02-10 15:26:00,54.1,40.6,30.06,North,0,0.0,1.9,60,0.00,,,0.00,WUHU21623XXSP,2013-02-10 20:26:00,
2013-02-10 15:32:00,53.4,41.1,30.06,South,180,3.5,4.1,63,0.00,,,0.00,WUHU21623XXSP,2013-02-10 20:32:00,
2013-02-10 15:37:00,53.2,40.9,30.06,West,270,0.0,6.5,63,0.00,,,0.00,WUHU21623XXSP,2013-02-10 20:37:00,
2013-02-10 15:42:00,52.7,42.0,30.06,SSW,202,0.0,6.5,67,0.00,,,0.00,WUHU21623XXSP,2013-02-10 20:42:00,
2013-02-10 15:48:00,52.3,42.9,30.07,West,270,0.0,1.7,70,0.00,,,0.00,WUHU21623XXSP,2013-02-10 20:48:00,
2013-02-10 15:53:00,52.2,42.8,30.07,NNE,22,0.0,1.7,70,0.00,,,0.00,WUHU21623XXSP,2013-02-10 20:53:00,
2013-02-10 15:59:00,51.6,43.6,30.07,WNW,292,0.0,1.9,74,0.02,,,0.02,WUHU21623XXSP,2013-02-10 20:59:00,
2013-02-10 16:04:00,51.1,43.8,30.07,West,270,0.0,1.9,76,0.02,,,0.02,WUHU21623XXSP,2013-02-10 21:04:00,
2013-02-10 16:09:00,50.7,43.8,30.07,East,90,0.0,1.7,77,0.02,,,0.02,WUHU21623XXSP,2013-02-10 21:09:00,
2013-02-10 16:15:00,50.4,43.7,30.06,NNE,22,0.0,1.7,78,0.02,,,0.02,WUHU21623XXSP,2013-02-10 21:15:00,
2013-02-10 16:20:00,50.0,44.1,30.07,North,0,0.0,1.7,80,0.02,,,0.02,WUHU21623XXSP,2013-02-10 21:20:00,
2013-02-10 16:25:00,49.8,44.2,30.07,ESE,112,0.0,0.0,81,0.02,,,0.02,WUHU21623XXSP,2013-02-10 21:25:00,
2013-02-10 16:30:00,49.6,44.0,30.08,West,270,0.0,0.0,81,0.04,,,0.04,WUHU21623XXSP,2013-02-10 21:30:00,
2013-02-10 16:35:00,49.1,44.1,30.08,West,270,1.7,1.9,83,0.06,,,0.06,WUHU21623XXSP,2013-02-10 21:35:00,
2013-02-10 16:40:00,48.9,43.9,30.08,West,270,0.0,1.9,83,0.09,,,0.09,WUHU21623XXSP,2013-02-10 21:40:00,
2013-02-10 16:45:00,48.7,43.8,30.08,West,270,0.0,1.9,83,0.11,,,0.11,WUHU21623XXSP,2013-02-10 21:45:00,
2013-02-10 16:50:00,48.7,44.1,30.07,North,0,0.0,0.0,84,0.13,,,0.13,WUHU21623XXSP,2013-02-10 21:50:00,
2013-02-10 16:55:00,48.6,43.9,30.07,East,90,0.0,0.0,84,0.15,,,0.17,WUHU21623XXSP,2013-02-10 21:55:00,
2013-02-10 17:00:00,48.4,43.7,30.07,South,180,0.0,0.0,84,0.15,,,0.17,WUHU21623XXSP,2013-02-10 22:00:00,
2013-02-10 17:05:00,48.4,44.0,30.07,WNW,292,0.0,0.0,85,0.17,,,0.19,WUHU21623XXSP,2013-02-10 22:05:00,
2013-02-10 17:10:00,48.4,44.0,30.07,WNW,292,0.0,0.0,85,0.17,,,0.19,WUHU21623XXSP,2013-02-10 22:10:00,
2013-02-10 17:15:00,48.6,44.5,30.07,WNW,292,0.0,0.0,86,0.17,,,0.19,WUHU21623XXSP,2013-02-10 22:15:00,
2013-02-10 17:20:00,48.6,44.5,30.08,WNW,292,0.0,0.0,86,0.19,,,0.22,WUHU21623XXSP,2013-02-10 22:20:00,
2013-02-10 17:25:00,48.4,44.4,30.09,WNW,292,0.0,0.0,86,0.19,,,0.22,WUHU21623XXSP,2013-02-10 22:25:00,
2013-02-10 17:30:00,48.0,44.0,30.09,WNW,292,0.0,0.0,86,0.19,,,0.24,WUHU21623XXSP,2013-02-10 22:30:00,
2013-02-10 17:35:00,47.7,43.7,30.09,WNW,292,0.0,0.0,86,0.19,,,0.26,WUHU21623XXSP,2013-02-10 22:35:00,
2013-02-10 17:40:00,47.5,43.5,30.09,North,0,0.0,0.0,86,0.19,,,0.28,WUHU21623XXSP,2013-02-10 22:40:00,
2013-02-10 17:45:00,47.5,43.5,30.09,South,180,0.0,1.9,86,0.17,,,0.30,WUHU21623XXSP,2013-02-10 22:45:00,
2013-02-10 17:51:00,47.5,43.5,30.09,East,90,0.0,1.9,86,0.19,,,0.32,WUHU21623XXSP,2013-02-10 22:51:00,
2013-02-10 17:56:00,47.5,43.8,30.09,North,0,0.0,0.0,87,0.17,,,0.35,WUHU21623XXSP,2013-02-10 22:56:00,
2013-02-10 18:01:00,47.3,43.6,30.10,West,270,0.0,0.0,87,0.17,,,0.35,WUHU21623XXSP,2013-02-10 23:01:00,
2013-02-10 18:06:00,47.3,43.6,30.08,ESE,112,1.7,1.9,87,0.17,,,0.37,WUHU21623XXSP,2013-02-10 23:06:00,
2013-02-10 18:11:00,47.3,43.6,30.09,West,270,0.0,1.9,87,0.17,,,0.37,WUHU21623XXSP,2013-02-10 23:11:00,
2013-02-10 18:16:00,47.1,43.5,30.07,ESE,112,0.0,1.9,87,0.17,,,0.37,WUHU21623XXSP,2013-02-10 23:16:00,
2013-02-10 18:21:00,47.1,43.8,30.05,ESE,112,4.4,5.1,88,0.17,,,0.39,WUHU21623XXSP,2013-02-10 23:21:00,
2013-02-10 18:26:00,47.5,44.1,30.07,West,270,0.0,5.1,88,0.17,,,0.39,WUHU21623XXSP,2013-02-10 23:26:00,
2013-02-10 18:31:00,47.5,44.1,30.07,SSW,202,0.0,5.1,88,0.15,,,0.39,WUHU21623XXSP,2013-02-10 23:31:00,
2013-02-10 18:36:00,47.5,44.1,30.07,West,270,0.0,1.9,88,0.13,,,0.39,WUHU21623XXSP,2013-02-10 23:36:00,
2013-02-10 18:41:00,47.7,44.3,30.07,SSW,202,2.1,2.4,88,0.09,,,0.39,WUHU21623XXSP,2013-02-10 23:41:00,
2013-02-10 18:47:00,47.7,44.3,30.07,South,180,0.0,2.4,88,0.06,,,0.39,WUHU21623XXSP,2013-02-10 23:47:00,
2013-02-10 18:52:00,47.8,44.5,30.07,NNE,22,0.0,2.4,88,0.06,,,0.39,WUHU21623XXSP,2013-02-10 23:52:00,
2013-02-10 18:57:00,47.8,44.5,30.07,SSW,202,4.9,6.0,88,0.04,,,0.39,WUHU21623XXSP,2013-02-10 23:57:00,
2013-02-10 19:02:00,47.8,44.4,30.06,East,90,10.5,12.2,88,0.04,,,0.39,WUHU21623XXSP,2013-02-11 00:02:00,
2013-02-10 19:07:00,47.8,44.5,30.02,East,90,1.7,12.2,88,0.05,,,0.42,WUHU21623XXSP,2013-02-11 00:07:00,
2013-02-10 19:12:00,48.0,44.7,30.05,West,270,0.0,12.2,88,0.05,,,0.42,WUHU21623XXSP,2013-02-11 00:12:00,
2013-02-10 19:17:00,48.0,44.7,30.06,WNW,292,0.0,5.1,88,0.05,,,0.42,WUHU21623XXSP,2013-02-11 00:17:00,
2013-02-10 19:22:00,48.0,44.7,30.07,West,270,2.1,2.4,88,0.03,,,0.42,WUHU21623XXSP,2013-02-11 00:22:00,
2013-02-10 19:27:00,48.0,44.7,30.07,SSW,202,0.0,2.4,88,0.03,,,0.42,WUHU21623XXSP,2013-02-11 00:27:00,
2013-02-10 19:32:00,47.8,44.5,30.08,SSW,202,0.0,2.4,88,0.03,,,0.42,WUHU21623XXSP,2013-02-11 00:32:00,
2013-02-10 19:37:00,47.8,44.5,30.07,SSW,202,0.0,0.0,88,0.03,,,0.42,WUHU21623XXSP,2013-02-11 00:37:00,
2013-02-10 19:42:00,47.8,44.5,30.07,South,180,1.7,3.0,88,0.03,,,0.42,WUHU21623XXSP,2013-02-11 00:42:00,
2013-02-10 19:47:00,47.7,44.3,30.06,SSW,202,0.0,3.0,88,0.03,,,0.42,WUHU21623XXSP,2013-02-11 00:47:00,
2013-02-10 19:52:00,47.5,44.1,30.06,WNW,292,0.0,1.9,88,0.03,,,0.42,WUHU21623XXSP,2013-02-11 00:52:00,
2013-02-10 19:57:00,47.5,44.1,30.06,SSW,202,0.0,0.0,88,0.03,,,0.42,WUHU21623XXSP,2013-02-11 00:57:00,
2013-02-10 20:02:00,47.5,44.1,30.06,WNW,292,0.0,0.0,88,0.03,,,0.42,WUHU21623XXSP,2013-02-11 01:02:00,
2013-02-10 20:07:00,47.3,44.0,30.05,South,180,0.0,0.0,88,0.00,,,0.42,WUHU21623XXSP,2013-02-11 01:07:00,
2013-02-10 20:12:00,47.3,44.0,30.07,WNW,292,0.0,2.7,88,0.00,,,0.42,WUHU21623XXSP,2013-02-11 01:12:00,
2013-02-10 20:17:00,47.3,44.0,30.07,South,180,0.0,2.7,88,0.00,,,0.42,WUHU21623XXSP,2013-02-11 01:17:00,
2013-02-10 20:22:00,47.1,43.8,30.07,West,270,0.0,0.0,88,0.00,,,0.42,WUHU21623XXSP,2013-02-11 01:22:00,
2013-02-10 20:27:00,47.1,43.8,30.06,East,90,0.0,0.0,88,0.00,,,0.42,WUHU21623XXSP,2013-02-11 01:27:00,
2013-02-10 20:32:00,47.1,43.8,30.06,ESE,112,0.0,0.0,88,0.00,,,0.42,WUHU21623XXSP,2013-02-11 01:32:00,
2013-02-10 20:37:00,47.1,43.8,30.04,ESE,112,0.0,0.0,88,0.00,,,0.42,WUHU21623XXSP,2013-02-11 01:37:00,
2013-02-10 20:42:00,47.1,43.8,30.04,NNE,22,0.0,0.0,88,0.00,,,0.42,WUHU21623XXSP,2013-02-11 01:42:00,
2013-02-10 20:47:00,47.1,43.8,30.04,East,90,0.0,0.0,88,0.00,,,0.42,WUHU21623XXSP,2013-02-11 01:47:00,
2013-02-10 20:53:00,47.1,43.8,30.04,East,90,0.0,0.0,88,0.00,,,0.42,WUHU21623XXSP,2013-02-11 01:53:00,
2013-02-10 20:58:00,47.1,43.8,30.04,ESE,112,0.0,0.0,88,0.00,,,0.42,WUHU21623XXSP,2013-02-11 01:58:00,
2013-02-10 21:03:00,47.1,43.8,30.05,ESE,112,0.0,0.0,88,0.00,,,0.42,WUHU21623XXSP,2013-02-11 02:03:00,
2013-02-10 21:08:00,47.1,43.8,30.04,ESE,112,0.0,0.0,88,0.00,,,0.42,WUHU21623XXSP,2013-02-11 02:08:00,
2013-02-10 21:13:00,47.1,43.8,30.04,ESE,112,0.0,0.0,88,0.00,,,0.42,WUHU21623XXSP,2013-02-11 02:13:00,
2013-02-10 21:18:00,47.1,43.8,30.04,ESE,112,0.0,0.0,88,0.00,,,0.42,WUHU21623XXSP,2013-02-11 02:18:00,
2013-02-10 21:23:00,47.3,44.0,30.04,ESE,112,0.0,0.0,88,0.00,,,0.42,WUHU21623XXSP,2013-02-11 02:23:00,
2013-02-10 21:28:00,47.3,44.0,30.03,ESE,112,1.7,1.9,88,0.00,,,0.42,WUHU21623XXSP,2013-02-11 02:28:00,
2013-02-10 21:33:00,47.5,44.1,30.03,ESE,112,0.0,1.9,88,0.00,,,0.42,WUHU21623XXSP,2013-02-11 02:33:00,
2013-02-10 21:38:00,47.7,44.3,30.03,East,90,2.1,2.4,88,0.00,,,0.42,WUHU21623XXSP,2013-02-11 02:38:00,
2013-02-10 21:43:00,47.8,44.5,30.03,East,90,0.0,2.4,88,0.00,,,0.42,WUHU21623XXSP,2013-02-11 02:43:00,
2013-02-10 21:48:00,47.8,44.5,30.03,East,90,0.0,2.4,88,0.00,,,0.42,WUHU21623XXSP,2013-02-11 02:48:00,
2013-02-10 21:53:00,47.5,44.1,30.03,East,90,0.0,0.0,88,0.00,,,0.42,WUHU21623XXSP,2013-02-11 02:53:00,
2013-02-10 21:58:00,47.3,44.0,30.02,NNE,22,0.0,0.0,88,0.00,,,0.42,WUHU21623XXSP,2013-02-11 02:58:00,
2013-02-10 22:03:00,47.1,43.8,30.02,North,0,0.0,0.0,88,0.00,,,0.42,WUHU21623XXSP,2013-02-11 03:03:00,
2013-02-10 22:08:00,47.1,44.1,30.02,East,90,0.0,0.0,89,0.00,,,0.42,WUHU21623XXSP,2013-02-11 03:08:00,
2013-02-10 22:13:00,46.9,43.9,30.01,East,90,0.0,0.0,89,0.00,,,0.42,WUHU21623XXSP,2013-02-11 03:13:00,
2013-02-10 22:18:00,46.8,43.7,30.02,North,0,0.0,0.0,89,0.00,,,0.42,WUHU21623XXSP,2013-02-11 03:18:00,
2013-02-10 22:23:00,46.6,43.6,30.02,WNW,292,0.0,0.0,89,0.00,,,0.42,WUHU21623XXSP,2013-02-11 03:23:00,
2013-02-10 22:28:00,46.6,43.3,30.02,ESE,112,0.0,0.0,88,0.00,,,0.42,WUHU21623XXSP,2013-02-11 03:28:00,
2013-02-10 22:33:00,46.4,43.1,30.01,East,90,0.0,0.0,88,0.00,,,0.42,WUHU21623XXSP,2013-02-11 03:33:00,
2013-02-10 22:38:00,46.2,42.9,30.01,East,90,0.0,0.0,88,0.00,,,0.42,WUHU21623XXSP,2013-02-11 03:38:00,
2013-02-10 22:43:00,46.2,42.9,30.02,NNE,22,0.0,0.0,88,0.00,,,0.42,WUHU21623XXSP,2013-02-11 03:43:00,
2013-02-10 22:48:00,46.2,42.9,30.02,North,0,0.0,0.0,88,0.00,,,0.42,WUHU21623XXSP,2013-02-11 03:48:00,
2013-02-10 22:53:00,46.2,42.9,30.02,North,0,0.0,0.0,88,0.00,,,0.42,WUHU21623XXSP,2013-02-11 03:53:00,
2013-02-10 22:59:00,46.2,42.9,30.02,NNE,22,0.0,0.0,88,0.00,,,0.42,WUHU21623XXSP,2013-02-11 03:59:00,
2013-02-10 23:04:00,46.4,43.1,30.02,East,90,0.0,0.0,88,0.00,,,0.42,WUHU21623XXSP,2013-02-11 04:04:00,
2013-02-10 23:09:00,46.6,43.3,30.02,East,90,0.0,0.0,88,0.00,,,0.42,WUHU21623XXSP,2013-02-11 04:09:00,
2013-02-10 23:14:00,46.6,43.3,30.01,East,90,0.0,0.0,88,0.00,,,0.42,WUHU21623XXSP,2013-02-11 04:14:00,
2013-02-10 23:19:00,46.6,43.6,30.01,East,90,0.0,0.0,89,0.00,,,0.42,WUHU21623XXSP,2013-02-11 04:19:00,
2013-02-10 23:24:00,46.6,43.6,30.01,ESE,112,0.0,0.0,89,0.00,,,0.42,WUHU21623XXSP,2013-02-11 04:24:00,
2013-02-10 23:29:00,46.8,43.7,30.01,East,90,0.0,0.0,89,0.00,,,0.42,WUHU21623XXSP,2013-02-11 04:29:00,
2013-02-10 23:34:00,46.6,43.6,30.01,East,90,0.0,0.0,89,0.00,,,0.42,WUHU21623XXSP,2013-02-11 04:34:00,
2013-02-10 23:39:00,46.8,43.7,30.02,SSW,202,0.0,0.0,89,0.00,,,0.42,WUHU21623XXSP,2013-02-11 04:39:00,
2013-02-10 23:44:00,46.8,43.7,30.02,ESE,112,0.0,0.0,89,0.00,,,0.42,WUHU21623XXSP,2013-02-11 04:44:00,
2013-02-10 23:49:00,46.8,43.7,30.02,ESE,112,0.0,0.0,89,0.00,,,0.42,WUHU21623XXSP,2013-02-11 04:49:00,
2013-02-10 23:54:00,46.9,43.9,30.02,ESE,112,0.0,0.0,89,0.00,,,0.42,WUHU21623XXSP,2013-02-11 04:54:00,
2013-02-10 23:59:00,46.9,43.9,30.02,East,90,0.0,0.0,89,0.00,,,0.42,WUHU21623XXSP,2013-02-11 04:59:00,